This is the latest recevied weather packets stored in our database for station/object K8GLX. If no packets are shown the sender has not sent any weather packets the latest 10 day(s).
| Time | Temp. | Humidity | Pressure | Rain* | Wind** | Luminosity | Snow |
|---|---|---|---|---|---|---|---|
| 1777855334 | 14.44° C | 39% | 1011.2 hPa | 0 mm | - | 0 W/m² | - |
| 1777855029 | 14.44° C | 39% | 1011.2 hPa | 0 mm | - | 0 W/m² | - |
| 1777854734 | 15° C | 38% | 1011.2 hPa | 0 mm | - | 0 W/m² | - |
| 1777854429 | 15° C | 38% | 1011.3 hPa | 0 mm | - | 3 W/m² | - |
| 1777854141 | 15° C | 39% | 1011.2 hPa | 0 mm | - | 4 W/m² | - |
| 1777853829 | 15° C | 38% | 1011.1 hPa | 0 mm | - | 7 W/m² | - |
| 1777853661 | 15° C | 38% | 1011.3 hPa | 0 mm | - | 9 W/m² | - |
| 1777853228 | 15.56° C | 37% | 1011.1 hPa | 0 mm | - | 12 W/m² | - |
| 1777852934 | 15.56° C | 37% | 1011.2 hPa | 0 mm | - | 15 W/m² | - |
| 1777852628 | 15.56° C | 37% | 1011.2 hPa | 0 mm | - | 17 W/m² | - |
| 1777852461 | 15.56° C | 38% | 1011 hPa | 0 mm | - | 21 W/m² | - |
| 1777852143 | 15.56° C | 38% | 1011.2 hPa | 0 mm | - | 24 W/m² | - |
| 1777851861 | 15.56° C | 38% | 1011.3 hPa | 0 mm | - | 27 W/m² | - |
| 1777851429 | 15.56° C | 38% | 1011.5 hPa | 0 mm | - | 31 W/m² | - |
| 1777851345 | 15.56° C | 38% | 1011.3 hPa | 0 mm | - | 36 W/m² | - |
| 1777850919 | 16.11° C | 38% | 1011.3 hPa | 0 mm | - | 47 W/m² | - |
| 1777850639 | 15.56° C | 38% | 1011.1 hPa | 0 mm | - | 58 W/m² | - |
| 1777850340 | 15.56° C | 38% | 1011.2 hPa | 0 mm | - | 63 W/m² | - |
| 1777850061 | 15.56° C | 37% | 1011.5 hPa | 0 mm | - | 69 W/m² | - |
| 1777849629 | 16.11° C | 37% | 1011.5 hPa | 0 mm | - | 78 W/m² | - |
| 1777849335 | 16.11° C | 37% | 1011.4 hPa | 0 mm | - | 74 W/m² | - |
| 1777849029 | 16.11° C | 37% | 1011.7 hPa | 0 mm | - | 82 W/m² | - |
| 1777848861 | 15.56° C | 37% | 1011.4 hPa | 0 mm | - | 93 W/m² | - |
| 1777848541 | 15.56° C | 38% | 1011.3 hPa | 0 mm | - | 78 W/m² | - |
| 1777848263 | 16.11° C | 38% | 1011.3 hPa | 0 mm | - | 72 W/m² | - |
* Rain latest hour (hover to see other rain measurements)
** Current wind speed in m/s (hover to see current wind gust speed)